TimeEET,TemperatureF,Dew PointF,Humidity,Sea Level PressureIn,VisibilityMPH,Wind Direction,Wind SpeedMPH,Gust SpeedMPH,PrecipitationIn,Events,Conditions,WindDirDegrees,DateUTC
12:00 AM,77.0,69.8,78,29.83,-9999.0,NW,5.8,-,N/A,,Clear,310,2013-09-19 22:00:00
1:00 AM,77.0,71.6,83,29.83,-9999.0,NW,6.9,-,N/A,,Clear,320,2013-09-19 23:00:00
2:00 AM,77,70,74,29.83,6,WNW,9.2,,,,Scattered Clouds,290,2013-09-20 00:00:00
2:00 AM,77.0,69.8,78,29.83,6.2,WNW,9.2,-,N/A,,Partly Cloudy,290,2013-09-20 00:00:00
3:00 AM,77.0,69.8,78,29.83,6.2,WNW,8.1,-,N/A,,Partly Cloudy,290,2013-09-20 01:00:00
4:00 AM,77.0,71.6,83,29.83,6.2,NNW,5.8,-,N/A,,Partly Cloudy,340,2013-09-20 02:00:00
5:00 AM,75.2,69.8,83,29.86,6.2,WNW,4.6,-,N/A,,Partly Cloudy,290,2013-09-20 03:00:00
6:00 AM,75.2,71.6,89,29.86,6.2,WNW,5.8,-,N/A,,Scattered Clouds,300,2013-09-20 04:00:00
7:00 AM,78.8,71.6,78,29.89,6.2,NW,9.2,-,N/A,,Scattered Clouds,310,2013-09-20 05:00:00
8:00 AM,81,71,65,29.90,6,WNW,6.9,,,,Partly Cloudy,300,2013-09-20 06:00:00
8:00 AM,80.6,71.6,74,29.89,6.2,WNW,10.4,-,N/A,,Scattered Clouds,300,2013-09-20 06:00:00
9:00 AM,82.4,69.8,66,29.92,6.2,NW,8.1,-,N/A,,Scattered Clouds,320,2013-09-20 07:00:00
10:00 AM,84.2,71.6,66,29.92,6.2,NW,9.2,-,N/A,,Scattered Clouds,320,2013-09-20 08:00:00
11:00 AM,84.2,69.8,62,29.95,6.2,WNW,10.4,-,N/A,,Scattered Clouds,290,2013-09-20 09:00:00
12:00 PM,84.2,71.6,66,29.92,6.2,WNW,13.8,-,N/A,,Scattered Clouds,300,2013-09-20 10:00:00
1:00 PM,84.2,69.8,62,29.92,6.2,WNW,11.5,-,N/A,,Scattered Clouds,300,2013-09-20 11:00:00
2:00 PM,86,69,47,29.93,6,WNW,11.5,,,,Partly Cloudy,300,2013-09-20 12:00:00
2:00 PM,86.0,68.0,55,29.92,6.2,WNW,11.5,-,N/A,,Scattered Clouds,300,2013-09-20 12:00:00
3:00 PM,86.0,68.0,55,29.92,6.2,NW,13.8,-,N/A,,Scattered Clouds,320,2013-09-20 13:00:00
4:00 PM,84.2,68.0,58,29.92,6.2,WNW,11.5,-,N/A,,Scattered Clouds,300,2013-09-20 14:00:00
5:00 PM,82.4,69.8,66,29.92,6.2,WNW,11.5,-,N/A,,Scattered Clouds,300,2013-09-20 15:00:00
6:00 PM,80.6,69.8,70,29.92,6.2,WNW,9.2,-,N/A,,Scattered Clouds,300,2013-09-20 16:00:00
7:00 PM,80.6,69.8,70,29.95,6.2,WNW,11.5,-,N/A,,Scattered Clouds,300,2013-09-20 17:00:00
8:00 PM,80,70,65,29.98,6,NNW,9.2,,,,Partly Cloudy,330,2013-09-20 18:00:00
8:00 PM,78.8,69.8,74,29.98,6.2,NNW,9.2,-,N/A,,Scattered Clouds,330,2013-09-20 18:00:00
9:00 PM,78.8,69.8,74,29.98,6.2,NW,11.5,-,N/A,,Scattered Clouds,310,2013-09-20 19:00:00
10:00 PM,78.8,69.8,74,29.98,6.2,NW,10.4,-,N/A,,Partly Cloudy,320,2013-09-20 20:00:00
11:00 PM,78.8,69.8,74,29.98,6.2,NNW,8.1,-,N/A,,Partly Cloudy,330,2013-09-20 21:00:00